Vorticity
4 4 3 4 7 10 11 9 8 7 6 5 5 6 7 6 8 8 7 5 4 4 5 7 7 8 9 10 11 11 10 10 10 10 9 9 10 9
5 4 5 7 10 11 9 8 7 6 6 6 6 6 7 6 4 3 4 5 7 8 6 10 13 14 13 13 14 14 15 15 15 15 15 14 14 13
5 4 6 10 10 8 8 6 5 6 7 6 6 7 4 3 4 5 6 7 7 9 11 12 14 13 14 12 12 13 13 12 13 13 13 12 12 13
6 7 12 9 8 8 6 5 6 7 7 6 6 3 2 4 4 6 7 8 12 12 11 13 13 13 11 12 12 12 11 11 11 13 12 12 11 11
6 10 8 8 8 6 6 6 7 7 6 6 3 4 5 6 5 6 9 11 12 11 13 11 10 12 11 12 11 11 13 15 17 18 16 16 15 14
8 8 8 7 6 6 6 7 7 6 6 5 6 6 7 7 7 9 10 9 12 11 12 13 12 13 11 13 14 15 13 13 13 14 17 19 20 20
9 6 6 7 6 6 6 7 7 7 6 7 7 7 8 8 9 11 12 12 15 13 10 14 11 10 10 11 14 14 13 12 11 11 11 12 14 17
6 9 7 7 6 7 7 7 7 8 8 6 7 10 11 11 12 11 13 12 14 13 10 11 9 9 11 14 15 13 11 12 12 12 11 12 11 12
8 7 6 6 7 8 7 6 7 6 8 8 11 12 14 11 11 13 13 11 11 11 8 11 10 11 13 15 12 11 12 13 12 12 12 11 11 11
6 7 6 7 9 8 9 9 9 10 9 12 13 12 12 13 12 11 11 10 11 10 9 10 9 12 14 14 12 12 13 11 11 11 10 13 12 12
7 7 9 9 9 9 8 8 9 12 12 11 11 11 12 12 11 10 10 11 10 10 10 9 8 9 8 11 12 11 10 9 9 10 11 12 15 13
8 9 9 10 9 7 8 11 13 10 11 10 11 12 11 11 10 11 11 11 11 11 10 8 8 9 10 10 10 11 10 8 10 10 12 12 15 17
9 9 9 8 6 9 12 12 10 9 10 11 11 11 12 12 12 11 11 11 9 8 9 9 9 8 6 6 8 11 11 11 10 12 13 15 14 16
10 8 8 12 12 12 11 9 9 10 10 10 11 11 11 11 11 11 11 10 9 10 11 10 10 8 7 7 8 12 12 11 13 14 14 16 15 17
8 11 12 9 10 10 8 9 9 10 9 10 11 10 10 9 10 10 11 12 11 12 12 13 10 7 8 8 8 13 12 10 15 13 15 16 17 20
9 10 10 10 9 8 9 9 9 10 10 10 9 9 11 11 12 13 14 13 12 11 14 12 8 7 8 9 11 12 10 13 16 16 15 15 14 17
11 10 10 9 10 9 9 9 10 9 8 8 10 11 12 13 14 15 15 13 12 12 13 10 8 9 8 10 11 13 12 12 15 15 14 13 16 14
10 10 10 10 9 9 9 9 8 8 9 11 13 13 13 14 14 14 13 12 12 12 13 13 12 10 9 11 14 17 11 11 14 19 14 11 16 11
10 10 11 10 8 8 8 7 8 11 12 13 13 13 14 14 14 13 12 12 12 13 13 13 11 11 11 10 14 20 10 11 14 18 12 12 16 18
11 11 9 7 6 8 9 11 12 13 12 12 13 13 14 14 13 12 12 12 11 11 10 10 11 10 11 10 12 15 12 10 14 16 13 9 13 15
11 8 7 7 9 9 11 11 12 12 12 12 13 14 14 13 12 11 11 10 10 10 10 10 11 11 11 11 13 16 13 13 13 14 11 7 7 22
8 7 9 9 9 10 12 12 12 13 13 14 14 14 13 13 11 11 11 11 10 11 10 12 14 12 12 13 11 14 12 14 15 15 14 10 8 2
9 10 10 11 11 12 12 12 14 14 14 15 15 13 13 12 11 11 11 10 10 11 12 13 12 12 12 14 11 13 11 11 15 20 19 11 13 13
Height
3126 3128 3128 3128 3127 3126 3125 3124 3124 3123 3120 3117 3115 3113 3112 3111 3108 3107 3104 3101 3097 3093 3089 3087 3082 3078 3074 3070 3067 3062 3059 3056 3053 3050 3048 3046 3045 3044
3121 3122 3122 3122 3121 3120 3120 3119 3118 3118 3117 3113 3110 3108 3106 3103 3101 3097 3094 3091 3088 3084 3078 3073 3071 3067 3061 3056 3052 3049 3046 3043 3039 3036 3033 3030 3029 3028
3115 3115 3115 3116 3115 3115 3114 3113 3112 3111 3110 3109 3105 3103 3100 3097 3093 3089 3086 3082 3077 3072 3066 3061 3058 3053 3049 3045 3040 3037 3033 3029 3026 3023 3019 3016 3014 3012
3110 3110 3110 3110 3110 3109 3108 3107 3106 3103 3102 3100 3099 3096 3093 3089 3084 3080 3077 3073 3068 3062 3055 3051 3046 3042 3038 3034 3030 3025 3021 3017 3013 3010 3006 3002 3000 2997
3103 3103 3103 3103 3103 3102 3101 3100 3099 3096 3094 3091 3089 3086 3082 3077 3073 3070 3066 3061 3057 3053 3046 3043 3037 3033 3029 3024 3019 3013 3008 3003 3000 2996 2992 2988 2985 2982
3096 3096 3096 3096 3096 3095 3094 3092 3090 3088 3086 3083 3079 3075 3070 3066 3061 3057 3053 3050 3045 3041 3036 3034 3028 3024 3020 3015 3010 3004 2997 2992 2987 2982 2978 2974 2971 2968
3090 3089 3090 3091 3090 3089 3087 3085 3082 3080 3077 3073 3070 3065 3061 3056 3050 3046 3041 3036 3036 3030 3024 3026 3019 3016 3012 3007 3000 2994 2988 2982 2977 2971 2966 2961 2958 2955
3082 3081 3082 3083 3082 3081 3079 3076 3075 3072 3068 3063 3060 3056 3050 3046 3041 3036 3031 3027 3025 3024 3015 3018 3007 3004 3001 2996 2991 2985 2980 2974 2968 2963 2957 2952 2948 2944
3076 3075 3075 3076 3076 3073 3071 3068 3065 3062 3059 3055 3050 3047 3042 3036 3031 3027 3023 3019 3015 3011 3006 3004 2999 2996 2992 2987 2982 2977 2972 2967 2961 2954 2947 2942 2938 2933
3068 3067 3067 3067 3068 3064 3061 3059 3055 3052 3049 3046 3042 3038 3032 3027 3022 3018 3015 3011 3009 3004 2998 2994 2990 2987 2983 2978 2973 2968 2963 2957 2951 2946 2939 2932 2927 2922
3060 3060 3059 3059 3057 3055 3053 3049 3048 3044 3040 3038 3033 3028 3023 3019 3015 3011 3008 3003 3000 2997 2992 2985 2982 2977 2974 2970 2965 2960 2955 2949 2943 2937 2931 2926 2919 2913
3051 3052 3051 3052 3048 3046 3043 3042 3040 3037 3033 3029 3024 3020 3015 3011 3007 3002 2998 2995 2991 2988 2984 2978 2973 2966 2964 2961 2956 2953 2948 2942 2935 2929 2923 2917 2911 2904
3042 3043 3043 3044 3042 3038 3036 3036 3033 3027 3024 3020 3017 3013 3009 3004 3000 2996 2991 2987 2983 2979 2975 2969 2966 2961 2956 2951 2948 2944 2938 2933 2927 2921 2915 2909 2904 2898
3035 3037 3037 3035 3034 3031 3029 3027 3022 3018 3015 3012 3009 3005 3001 2997 2993 2988 2984 2980 2975 2971 2968 2963 2958 2953 2948 2944 2939 2936 2930 2924 2917 2911 2906 2902 2897 2892
3029 3030 3029 3028 3026 3023 3020 3018 3015 3011 3007 3004 3000 2996 2991 2987 2983 2979 2975 2971 2968 2965 2960 2956 2951 2946 2942 2936 2931 2927 2921 2916 2911 2903 2899 2895 2889 2884
3022 3022 3021 3020 3017 3015 3013 3010 3006 3003 2999 2995 2991 2986 2981 2977 2974 2970 2967 2963 2960 2958 2954 2949 2944 2940 2935 2930 2925 2920 2915 2906 2903 2897 2892 2889 2885 2880
3015 3014 3013 3012 3010 3008 3005 3001 2998 2993 2989 2985 2981 2977 2973 2969 2966 2962 2958 2955 2952 2949 2946 2943 2938 2933 2928 2923 2918 2914 2907 2901 2896 2891 2886 2883 2881 2876
3007 3007 3007 3006 3003 3000 2997 2993 2989 2985 2980 2977 2973 2969 2966 2962 2958 2955 2951 2948 2944 2941 2938 2934 2930 2926 2922 2919 2913 2907 2900 2895 2891 2887 2883 2877 2876 2873
3001 3001 3000 2998 2994 2991 2988 2984 2981 2977 2973 2969 2966 2962 2958 2955 2951 2948 2944 2941 2938 2934 2931 2928 2923 2918 2912 2908 2907 2902 2893 2889 2885 2882 2879 2875 2871 2869
2995 2994 2991 2989 2986 2983 2980 2977 2974 2970 2966 2962 2958 2955 2951 2948 2945 2942 2938 2935 2931 2928 2925 2922 2917 2912 2907 2901 2896 2896 2891 2884 2880 2877 2874 2872 2869 2866
2988 2985 2984 2981 2979 2976 2973 2970 2966 2963 2958 2955 2952 2948 2945 2942 2939 2936 2932 2929 2925 2922 2918 2915 2911 2907 2902 2897 2893 2891 2888 2881 2876 2872 2870 2868 2866 2864
2980 2979 2976 2974 2971 2969 2966 2963 2959 2956 2952 2948 2945 2942 2939 2936 2933 2930 2927 2923 2920 2916 2911 2909 2905 2901 2897 2892 2888 2884 2881 2878 2874 2870 2867 2864 2861 2859
2974 2971 2969 2968 2966 2963 2959 2955 2952 2949 2946 2942 2939 2936 2934 2931 2928 2925 2921 2918 2913 2910 2906 2902 2899 2896 2892 2887 2883 2879 2876 2872 2869 2867 2865 2860 2858 2856